Погода в Бубнове

Россия / Белгородская область     50°50′36″N   37°31′13″E
темп.,
°C
ветер,
м/с
пор.,
м/с
влажн.,
%
обл.,
%
осадки,
мм/ч
давл.,
гПа
погр.,
м
18 мая, вт
вт1800:00+17ююв378888 0.4 1006134
03:00+15ю119139 0.4 100611
06:00+16вюв249295 0.0 100699
09:00+19ю567878 0.0 1006640
12:00+21ю5668100 0.4 10061334
15:00+17ю588287 0.8 1006520
18:00+17ююв51084100 1.6 1006448
21:00+14юв3789100 2.4 1006124
19 мая, ср
ср1900:00+13ю3692100 0.0 1006111
03:00+12юв239520 0.0 100654
06:00+12ююв499458 0.0 1006325
09:00+16ююв5782100 0.0 1006744
12:00+17ююв6878100 0.6 1006943
15:00+14ююз3692100 3.1 1007451
18:00+13юв3694100 1.1 1007301
21:00+12вюв3996100 1.2 1007267
20 мая, чт
чт2000:00+11ююв399595 0.0 1006265
03:00+9ююв379884 0.0 1006164
06:00+11юв3898100 1.1 1006412
09:00+13юз468758 1.6 1006601
12:00+15юз7981100 1.1 10081056
15:00+14юз6986100 1.3 1010791
18:00+15юз497985 0.1 1010937
21:00+12ююз369210 0.1 1011108
21 мая, пт
пт2100:00+11зюз5129620 0.0 1012386
03:00+9зюз499666 0.0 1014297
06:00+9з278792 0.1 1016268
09:00+12сз237580 0.1 1016235
12:00+17св1159100 0.0 1016761
15:00+18в2361100 0.0 1016779
18:00+17всв3778100 0.1 1015317
21:00+15св51181100 0.1 1015275
22 мая, сб
сб2200:00+14св61389100 0.5 1015349
03:00+12св71493100 0.9 1014352
06:00+13св61194100 0.0 1014334
09:00+18всв5679100 0.0 1012511
12:00+22вюв346321 0.0 10131102
15:00+24всв3361100 0.0 10121095
18:00+22вюв1177100 0.0 101212
21:00+19св3382100 0.0 101225